This demonstration page uses our WeatherBlox Daily Observations layout. Learn more.

Hourly Observations for June 17, 2015

Temp ( °F °C ) Dew Point ( °F °C ) Humidity (%) Winds ( mph kmh ) Pressure ( in mb ) Visibility ( mi km ) Precip ( " mm )
4:15 am 04:15 Partly Cloudy 63 17 59 15 88 88 ESE 14 22 29.94 1014 10 16.09344 0 0
4:55 am 04:55 Clear 61 16 59 15 94 94 S 6 9 29.94 1014 10 16.09344 0 0
5:15 am 05:15 Clear 61 16 59 15 94 94 S 7 11 29.94 1014 10 16.09344 0 0
5:35 am 05:35 Clear 61 16 59 15 94 94 S 7 11 29.94 1014 10 16.09344 0 0
5:55 am 05:55 Clear 61 16 59 15 94 94 S 5 7 29.94 1014 10 16.09344 0 0
6:15 am 06:15 Sunny 61 16 57 14 88 88 Calm 29.94 1014 10 16.09344 0 0
6:35 am 06:35 Sunny 59 15 57 14 94 94 N 7 11 30 1016 10 16.09344 0 0
6:55 am 06:55 Sunny 59 15 57 14 94 94 NNW 6 9 30 1016 10 16.09344 0 0
7:15 am 07:15 Sunny 61 16 59 15 94 94 NNW 6 9 30 1016 10 16.09344 0 0
7:35 am 07:35 Sunny 63 17 59 15 88 88 NNW 7 11 30 1016 10 16.09344 0 0
7:55 am 07:55 Sunny 63 17 61 16 94 94 N 7 11 30 1016 10 16.09344 0 0
8:15 am 08:15 Sunny 64 18 61 16 88 88 NNW 8 13 30 1016 10 16.09344 0 0
8:35 am 08:35 Sunny 66 19 61 16 83 83 N 6 9 29.97 1015 10 16.09344 0 0
8:55 am 08:55 Sunny 66 19 61 16 83 83 N 8 13 30 1016 10 16.09344 0 0
9:15 am 09:15 Sunny 66 19 61 16 83 83 N 10 17 30 1016 10 16.09344 0 0
9:35 am 09:35 Sunny 68 20 61 16 78 78 N 7 11 30 1016 10 16.09344 0 0
9:55 am 09:55 Sunny 70 21 63 17 78 78 NNW 6 9 29.97 1015 10 16.09344 0 0
10:15 am 10:15 Sunny 70 21 61 16 73 73 N 8 13 29.97 1015 10 16.09344 0 0
10:35 am 10:35 Sunny 70 21 63 17 78 78 N 7 11 29.97 1015 10 16.09344 0 0
10:55 am 10:55 Sunny 72 22 61 16 69 69 N 8 13 29.97 1015 10 16.09344 0 0
11:15 am 11:15 Sunny 73 23 63 17 69 69 N 8 13 29.97 1015 10 16.09344 0 0
11:35 am 11:35 Sunny 73 23 63 17 69 69 N 9 15 29.97 1015 10 16.09344 0 0
11:55 am 11:55 Sunny 75 24 63 17 65 65 NNE 8 13 29.94 1014 10 16.09344 0 0
12:15 pm 12:15 Sunny 75 24 63 17 65 65 ENE 5 7 29.94 1014 10 16.09344 0 0
12:35 pm 12:35 Sunny 77 25 63 17 61 61 NNE 8 13 29.94 1014 10 16.09344 0 0
12:55 pm 12:55 Sunny 77 25 63 17 61 61 NE 10 17 29.94 1014 10 16.09344 0 0
1:15 pm 13:15 Sunny 77 25 63 17 61 61 ENE 8 13 29.94 1014 10 16.09344 0 0
1:35 pm 13:35 Sunny 77 25 61 16 57 57 NE 8 13 29.94 1014 10 16.09344 0 0
1:55 pm 13:55 Sunny 79 26 61 16 54 54 NE 6 9 29.94 1014 10 16.09344 0 0
2:15 pm 14:15 Partly Cloudy 79 26 63 17 58 58 E 9 15 29.91 1013 10 16.09344 0 0
2:35 pm 14:35 Partly Cloudy 79 26 61 16 54 54 E 6 9 29.91 1013 10 16.09344 0 0
2:55 pm 14:55 Partly Cloudy 79 26 63 17 58 58 ENE 10 17 29.91 1013 10 16.09344 0 0
3:15 pm 15:15 Partly Cloudy 81 27 61 16 51 51 ENE 9 15 29.91 1013 10 16.09344 0 0
3:35 pm 15:35 Partly Cloudy 79 26 61 16 54 54 ENE 8 13 29.91 1013 10 16.09344 0 0
3:55 pm 15:55 Mostly Cloudy 79 26 63 17 58 58 ENE 6 9 29.91 1013 10 16.09344 0 0
4:15 pm 16:15 Partly Cloudy 79 26 61 16 54 54 E 6 9 29.91 1013 10 16.09344 0 0
4:35 pm 16:35 Partly Cloudy 79 26 63 17 58 58 ENE 3 6 29.91 1013 10 16.09344 0 0
4:55 pm 16:55 Partly Cloudy 79 26 64 18 61 61 E 6 9 29.91 1013 10 16.09344 0 0
5:15 pm 17:15 Partly Cloudy 81 27 64 18 58 58 ENE 9 15 29.85 1011 10 16.09344 0 0
5:35 pm 17:35 Partly Cloudy 81 27 64 18 58 58 E 8 13 29.85 1011 10 16.09344 0 0
5:55 pm 17:55 Partly Cloudy 81 27 63 17 54 54 ENE 3 6 29.85 1011 10 16.09344 0 0
6:15 pm 18:15 Partly Cloudy 79 26 63 17 58 58 E 7 11 29.88 1012 10 16.09344 0 0
6:35 pm 18:35 Partly Cloudy 81 27 63 17 54 54 ENE 6 9 29.85 1011 10 16.09344 0 0
6:55 pm 18:55 Partly Cloudy 79 26 64 18 61 61 ENE 7 11 29.88 1012 10 16.09344 0 0
7:15 pm 19:15 Sunny 79 26 64 18 61 61 ESE 8 13 29.88 1012 10 16.09344 0 0
7:35 pm 19:35 Sunny 79 26 64 18 61 61 E 7 11 29.88 1012 10 16.09344 0 0
7:55 pm 19:55 Sunny 79 26 64 18 61 61 E 7 11 29.88 1012 10 16.09344 0 0
8:15 pm 20:15 Sunny 77 25 64 18 65 65 E 6 9 29.88 1012 10 16.09344 0 0
8:35 pm 20:35 Sunny 77 25 64 18 65 65 E 5 7 29.88 1012 10 16.09344 0 0
8:55 pm 20:55 Sunny 73 23 66 19 78 78 ENE 6 9 29.91 1013 10 16.09344 0 0
9:15 pm 21:15 Mostly Cloudy 73 23 66 19 78 78 ENE 6 9 29.91 1013 10 16.09344 0 0
9:35 pm 21:35 Mostly Cloudy 72 22 66 19 83 83 ENE 7 11 29.91 1013 10 16.09344 0 0
9:55 pm 21:55 Partly Cloudy 72 22 66 19 83 83 ENE 7 11 29.91 1013 10 16.09344 0 0
10:15 pm 22:15 Clear 70 21 66 19 88 88 ENE 7 11 29.91 1013 10 16.09344 0 0
10:35 pm 22:35 Mostly Cloudy 70 21 66 19 88 88 ENE 6 9 29.94 1014 10 16.09344 0 0
10:55 pm 22:55 Partly Cloudy 70 21 66 19 88 88 E 6 9 29.94 1014 10 16.09344 0 0
11:15 pm 23:15 Clear 70 21 66 19 88 88 E 6 9 29.94 1014 10 16.09344 0 0
11:35 pm 23:35 Clear 68 20 66 19 94 94 E 3 6 29.94 1014 10 16.09344 0 0
11:55 pm 23:55 Clear 68 20 66 19 94 94 E 3 6 29.94 1014 10 16.09344 0 0

Powered by AerisWeather